| time (UTC) | temp F | wind direction | speed knots | gust knots | rain 1hr in | rain 24hr in | rain mn in | humidity % | barometer mb |
| 20260509203413 | 86 | 221 | 4.3 | 9.6 | 0.00 | 0.00 | 0.00 | 42 | 1012.0 |
| 20260509203145 | 85 | 242 | 3.5 | 9.6 | 0.00 | 0.00 | 0.00 | 43 | 1012.1 |
| 20260509202410 | 85 | 221 | 4.3 | 7.8 | 0.00 | 0.00 | 0.00 | 41 | 1012.2 |
| 20260509201910 | 85 | 225 | 4.3 | 7.8 | 0.00 | 0.00 | 0.00 | 42 | 1012.2 |
| 20260509201409 | 86 | 232 | 3.5 | 8.7 | 0.00 | 0.00 | 0.00 | 38 | 1012.3 |
| 20260509200909 | 85 | 225 | 3.5 | 8.7 | 0.00 | 0.00 | 0.00 | 39 | 1012.3 |
| 20260509200637 | 85 | 202 | 3.5 | 6.1 | 0.00 | 0.00 | 0.00 | 39 | 1012.5 |
| 20260509195906 | 84 | 252 | 3.5 | 7.0 | 0.00 | 0.00 | 0.00 | 39 | 1012.5 |
| 20260509195404 | 84 | 247 | 3.5 | 7.0 | 0.00 | 0.00 | 0.00 | 40 | 1012.6 |
| 20260509194903 | 83 | 171 | 3.5 | 7.8 | 0.00 | 0.00 | 0.00 | 40 | 1012.7 |
| 20260509194405 | 83 | 226 | 3.5 | 7.8 | 0.00 | 0.00 | 0.00 | 39 | 1012.7 |
| 20260509193905 | 84 | 232 | 2.6 | 6.1 | 0.00 | 0.00 | 0.00 | 41 | 1012.8 |
| 20260509193403 | 84 | 224 | 2.6 | 6.1 | 0.00 | 0.00 | 0.00 | 42 | 1012.9 |
| 20260509192859 | 83 | 223 | 2.6 | 6.1 | 0.00 | 0.00 | 0.00 | 43 | 1012.9 |
| 20260509192358 | 82 | 213 | 2.6 | 6.1 | 0.00 | 0.00 | 0.00 | 45 | 1013.0 |
| 20260509191858 | 82 | 213 | 2.6 | 6.1 | 0.00 | 0.00 | 0.00 | 45 | 1013.0 |
| 20260509191358 | 81 | 213 | 3.5 | 7.0 | 0.00 | 0.00 | 0.00 | 45 | 1013.1 |
| 20260509190854 | 81 | 221 | 2.6 | 7.0 | 0.00 | 0.00 | 0.00 | 47 | 1013.1 |
| 20260509190355 | 81 | 232 | 3.5 | 7.8 | 0.00 | 0.00 | 0.00 | 47 | 1013.2 |
| 20260509185852 | 80 | 246 | 2.6 | 7.8 | 0.00 | 0.00 | 0.00 | 51 | 1013.2 |
| 20260509185352 | 79 | 234 | 3.5 | 7.0 | 0.00 | 0.00 | 0.00 | 50 | 1013.2 |
| 20260509184850 | 79 | 242 | 2.6 | 6.1 | 0.00 | 0.00 | 0.00 | 53 | 1013.3 |
| 20260509184351 | 78 | 240 | 3.5 | 6.1 | 0.00 | 0.00 | 0.00 | 54 | 1013.4 |
| 20260509183849 | 78 | 254 | 3.5 | 6.1 | 0.00 | 0.00 | 0.00 | 55 | 1013.5 |
| 20260509183348 | 77 | 234 | 3.5 | 6.1 | 0.00 | 0.00 | 0.00 | 56 | 1013.4 |
| 20260509182847 | 76 | 236 | 2.6 | 7.0 | 0.00 | 0.00 | 0.00 | 58 | 1013.4 |
| 20260509182347 | 76 | 242 | 2.6 | 6.1 | 0.00 | 0.00 | 0.00 | 58 | 1013.4 |
| 20260509181844 | 76 | 246 | 2.6 | 6.1 | 0.00 | 0.00 | 0.00 | 60 | 1013.5 |
| 20260509181344 | 75 | 250 | 2.6 | 6.1 | 0.00 | 0.00 | 0.00 | 63 | 1013.5 |
| 20260509180843 | 74 | 252 | 1.7 | 5.2 | 0.00 | 0.00 | 0.00 | 64 | 1013.6 |
| 20260509180343 | 74 | 249 | 1.7 | 5.2 | 0.00 | 0.00 | 0.00 | 63 | 1013.6 |
| 20260509175840 | 74 | 252 | 1.7 | 3.5 | 0.00 | 0.00 | 0.00 | 65 | 1013.6 |
| 20260509175612 | 73 | 252 | 0.9 | 3.5 | 0.00 | 0.00 | 0.00 | 66 | 1013.6 |
| 20260509174840 | 72 | 223 | 0.9 | 3.5 | 0.00 | 0.00 | 0.00 | 68 | 1013.7 |
| 20260509174336 | 71 | 223 | 0.9 | 3.5 | 0.00 | 0.00 | 0.00 | 69 | 1013.8 |
| 20260509173836 | 71 | 223 | 1.7 | 3.5 | 0.00 | 0.00 | 0.00 | 70 | 1013.7 |
| 20260509172837 | 70 | 223 | 1.7 | 4.3 | 0.00 | 0.00 | 0.00 | 76 | 1013.8 |
| 20260509172336 | 69 | 223 | 1.7 | 4.3 | 0.00 | 0.00 | 0.00 | 77 | 1013.9 |
| 20260509171837 | 68 | 223 | 1.7 | 3.5 | 0.00 | 0.00 | 0.00 | 79 | 1013.9 |
| 20260509171336 | 67 | 223 | 1.7 | 3.5 | 0.00 | 0.00 | 0.00 | 81 | 1013.9 |
| 20260509170836 | 67 | 223 | 0.9 | 3.5 | 0.00 | 0.00 | 0.00 | 82 | 1014.0 |
| 20260509170336 | 66 | 223 | 0.9 | 3.5 | 0.00 | 0.00 | 0.00 | 84 | 1014.0 |
| 20260509170108 | 66 | 223 | 0.9 | 4.3 | 0.00 | 0.00 | 0.00 | 84 | 1013.9 |
| 20260509165337 | 64 | 223 | 1.7 | 5.2 | 0.00 | 0.00 | 0.00 | 84 | 1014.0 |
| 20260509164837 | 64 | 224 | 1.7 | 5.2 | 0.00 | 0.00 | 0.00 | 83 | 1014.0 |
| 20260509164335 | 64 | 227 | 0.9 | 5.2 | 0.00 | 0.00 | 0.00 | 79 | 1014.0 |
| 20260509163836 | 64 | 227 | 0.9 | 2.6 | 0.00 | 0.00 | 0.00 | 78 | 1014.0 |
| 20260509163331 | 63 | 227 | 0.9 | 2.6 | 0.00 | 0.00 | 0.00 | 78 | 1014.0 |
| 20260509162833 | 62 | 227 | 0.9 | 2.6 | 0.00 | 0.00 | 0.00 | 77 | 1014.1 |
| 20260509162332 | 62 | 227 | 1.7 | 4.3 | 0.00 | 0.00 | 0.00 | 77 | 1014.2 |
| 20260509162056 | 62 | 227 | 1.7 | 5.2 | 0.00 | 0.00 | 0.00 | 76 | 1014.1 |
| 20260509161327 | 62 | 227 | 0.9 | 4.3 | 0.00 | 0.00 | 0.00 | 76 | 1014.1 |
| 20260509161058 | 61 | 227 | 0.9 | 3.5 | 0.00 | 0.00 | 0.00 | 76 | 1014.1 |
| 20260509160327 | 61 | 227 | 0.9 | 2.6 | 0.00 | 0.00 | 0.00 | 76 | 1014.2 |
| 20260509155826 | 61 | 227 | 0.0 | 2.6 | 0.00 | 0.00 | 0.00 | 76 | 1014.2 |
| 20260509155322 | 61 | 227 | 0.9 | 2.6 | 0.00 | 0.00 | 0.00 | 77 | 1014.3 |
| 20260509154555 | 60 | 227 | 0.9 | 2.6 | 0.00 | 0.00 | 0.00 | 77 | 1014.2 |
| 20260509153823 | 60 | 227 | 0.9 | 2.6 | 0.00 | 0.00 | 0.00 | 77 | 1014.2 |
| 20260509153320 | 60 | 227 | 0.9 | 2.6 | 0.00 | 0.00 | 0.00 | 77 | 1014.3 |
| 20260509152319 | 60 | 227 | 0.0 | 2.6 | 0.00 | 0.00 | 0.00 | 76 | 1014.2 |
| 20260509151818 | 60 | 227 | 0.9 | 3.5 | 0.00 | 0.00 | 0.00 | 76 | 1014.3 |
| 20260509151318 | 60 | 227 | 0.9 | 3.5 | 0.00 | 0.00 | 0.00 | 77 | 1014.3 |
| 20260509150817 | 60 | 227 | 0.9 | 2.6 | 0.00 | 0.00 | 0.00 | 77 | 1014.3 |
| 20260509145815 | 60 | 227 | 0.9 | 3.5 | 0.00 | 0.00 | 0.00 | 77 | 1014.3 |
| 20260509144310 | 60 | 227 | 0.9 | 3.5 | 0.00 | 0.00 | 0.00 | 78 | 1014.3 |
| 20260509143810 | 59 | 227 | 0.9 | 2.6 | 0.00 | 0.00 | 0.00 | 78 | 1014.3 |
| 20260509143538 | 59 | 227 | 0.9 | 2.6 | 0.00 | 0.00 | 0.00 | 78 | 1014.2 |
| 20260509143039 | 59 | 227 | 0.9 | 2.6 | 0.00 | 0.00 | 0.00 | 78 | 1014.2 |
| 20260509142307 | 59 | 227 | 0.9 | 2.6 | 0.00 | 0.00 | 0.00 | 78 | 1014.2 |
| 20260509141806 | 59 | 229 | 0.0 | 2.6 | 0.00 | 0.00 | 0.00 | 78 | 1014.1 |
| 20260509140807 | 59 | 229 | 0.0 | 1.7 | 0.00 | 0.00 | 0.00 | 79 | 1014.1 |
| 20260509140538 | 59 | 229 | 0.0 | 1.7 | 0.00 | 0.00 | 0.00 | 79 | 1014.1 |
| 20260509135803 | 59 | 229 | 0.0 | 0.9 | 0.00 | 0.00 | 0.00 | 79 | 1014.1 |
| 20260509135533 | 59 | 229 | 0.0 | 1.7 | 0.00 | 0.00 | 0.00 | 79 | 1014.1 |
| 20260509134803 | 59 | 229 | 0.0 | 1.7 | 0.00 | 0.00 | 0.00 | 79 | 1014.1 |
| 20260509134258 | 59 | 229 | 0.0 | 1.7 | 0.00 | 0.00 | 0.00 | 80 | 1014.0 |
| 20260509133758 | 59 | 229 | 0.0 | 0.9 | 0.00 | 0.00 | 0.00 | 80 | 1014.0 |
| 20260509133530 | 59 | 229 | 0.9 | 2.6 | 0.00 | 0.00 | 0.00 | 80 | 1014.0 |
| 20260509132759 | 59 | 229 | 0.9 | 2.6 | 0.00 | 0.00 | 0.00 | 80 | 1013.9 |
| 20260509132259 | 58 | 229 | 0.0 | 2.6 | 0.00 | 0.00 | 0.00 | 80 | 1013.9 |
| 20260509131757 | 58 | 229 | 0.9 | 2.6 | 0.00 | 0.00 | 0.00 | 81 | 1013.8 |
| 20260509131311 | 58 | 229 | 0.9 | 2.6 | 0.00 | 0.00 | 0.00 | 81 | 1013.8 |
| 20260509130754 | 58 | 229 | 0.9 | 2.6 | 0.00 | 0.00 | 0.00 | 81 | 1013.7 |
| 20260509130306 | 58 | 223 | 0.9 | 2.6 | 0.00 | 0.00 | 0.00 | 81 | 1013.7 |
| 20260509130025 | 58 | 223 | 0.9 | 2.6 | 0.00 | 0.00 | 0.00 | 81 | 1013.6 |
| 20260509125252 | 58 | 223 | 1.7 | 3.5 | 0.00 | 0.00 | 0.00 | 81 | 1013.6 |
| 20260509124749 | 58 | 223 | 1.7 | 3.5 | 0.00 | 0.00 | 0.00 | 82 | 1013.6 |
| 20260509124250 | 58 | 223 | 1.7 | 2.6 | 0.00 | 0.00 | 0.00 | 82 | 1013.5 |
| 20260509123745 | 58 | 223 | 0.9 | 2.6 | 0.00 | 0.00 | 0.00 | 82 | 1013.6 |
| 20260509123246 | 58 | 223 | 0.0 | 1.7 | 0.00 | 0.00 | 0.00 | 83 | 1013.6 |
| 20260509122746 | 57 | 223 | 0.0 | 0.0 | 0.00 | 0.00 | 0.00 | 83 | 1013.5 |
| 20260509122516 | 58 | 223 | 0.0 | 0.0 | 0.00 | 0.00 | 0.00 | 83 | 1013.5 |
| 20260509121742 | 58 | 223 | 0.0 | 0.0 | 0.00 | 0.00 | 0.00 | 83 | 1013.5 |
| 20260509121242 | 58 | 223 | 0.0 | 0.0 | 0.00 | 0.00 | 0.00 | 83 | 1013.5 |
| 20260509120736 | 58 | 223 | 0.0 | 0.0 | 0.00 | 0.00 | 0.00 | 83 | 1013.5 |
| 20260509120237 | 58 | 223 | 0.0 | 0.0 | 0.00 | 0.00 | 0.00 | 83 | 1013.5 |
| 20260509115736 | 58 | 223 | 0.0 | 0.0 | 0.00 | 0.00 | 0.00 | 84 | 1013.5 |
| 20260509115236 | 58 | 223 | 0.0 | 0.0 | 0.00 | 0.00 | 0.00 | 84 | 1013.6 |
| 20260509114734 | 57 | 223 | 0.0 | 0.0 | 0.00 | 0.00 | 0.00 | 84 | 1013.6 |
| 20260509114505 | 58 | 223 | 0.0 | 0.0 | 0.00 | 0.00 | 0.00 | 84 | 1013.5 |
| 20260509113733 | 57 | 223 | 0.0 | 0.0 | 0.00 | 0.00 | 0.00 | 84 | 1013.5 |
| 20260509113235 | 57 | 223 | 0.0 | 0.0 | 0.00 | 0.00 | 0.00 | 85 | 1013.4 |
| 20260509112734 | 57 | 223 | 0.0 | 0.0 | 0.00 | 0.00 | 0.00 | 84 | 1013.4 |
| 20260509112233 | 58 | 223 | 0.0 | 0.0 | 0.00 | 0.00 | 0.00 | 84 | 1013.4 |
| 20260509111730 | 58 | 223 | 0.0 | 0.0 | 0.00 | 0.00 | 0.00 | 85 | 1013.5 |
| 20260509111230 | 58 | 223 | 0.0 | 0.0 | 0.00 | 0.00 | 0.00 | 85 | 1013.6 |
| 20260509110731 | 58 | 223 | 0.0 | 0.0 | 0.00 | 0.00 | 0.00 | 85 | 1013.6 |
| 20260509110230 | 58 | 223 | 0.0 | 0.0 | 0.00 | 0.00 | 0.00 | 85 | 1013.6 |
| 20260509105229 | 58 | 223 | 0.0 | 0.0 | 0.00 | 0.00 | 0.00 | 85 | 1013.6 |
| 20260509104725 | 58 | 223 | 0.0 | 0.0 | 0.00 | 0.00 | 0.00 | 85 | 1013.6 |
| 20260509104225 | 58 | 223 | 0.0 | 0.0 | 0.00 | 0.00 | 0.00 | 85 | 1013.6 |
| 20260509103724 | 58 | 223 | 0.0 | 0.0 | 0.00 | 0.00 | 0.00 | 85 | 1013.6 |
| 20260509103222 | 58 | 223 | 0.0 | 0.0 | 0.00 | 0.00 | 0.00 | 85 | 1013.6 |
| 20260509102720 | 58 | 223 | 0.0 | 0.0 | 0.00 | 0.00 | 0.00 | 85 | 1013.6 |
| 20260509101718 | 58 | 223 | 0.0 | 0.0 | 0.00 | 0.00 | 0.00 | 85 | 1013.7 |
| 20260509101218 | 58 | 223 | 0.0 | 0.0 | 0.00 | 0.00 | 0.00 | 86 | 1013.8 |
| 20260509100716 | 58 | 223 | 0.0 | 0.0 | 0.00 | 0.00 | 0.00 | 85 | 1013.8 |
| 20260509100227 | 58 | 223 | 0.0 | 0.0 | 0.00 | 0.00 | 0.00 | 86 | 1013.8 |
| 20260509095712 | 58 | 223 | 0.0 | 0.0 | 0.00 | 0.00 | 0.00 | 86 | 1013.8 |
| 20260509095213 | 58 | 223 | 0.9 | 2.6 | 0.00 | 0.00 | 0.00 | 86 | 1013.8 |
| 20260509094709 | 59 | 223 | 0.9 | 2.6 | 0.00 | 0.00 | 0.00 | 86 | 1013.8 |
| 20260509094208 | 59 | 223 | 0.9 | 2.6 | 0.00 | 0.00 | 0.00 | 86 | 1013.9 |
| 20260509093708 | 59 | 223 | 0.9 | 2.6 | 0.00 | 0.00 | 0.00 | 86 | 1013.9 |
| 20260509092709 | 59 | 223 | 0.9 | 2.6 | 0.00 | 0.00 | 0.00 | 86 | 1014.0 |
| 20260509092208 | 59 | 223 | 0.9 | 2.6 | 0.00 | 0.00 | 0.00 | 86 | 1014.1 |
| 20260509091939 | 59 | 223 | 0.9 | 1.7 | 0.00 | 0.00 | 0.00 | 86 | 1014.1 |
| 20260509091208 | 59 | 223 | 0.9 | 1.7 | 0.00 | 0.00 | 0.00 | 86 | 1014.1 |
| 20260509090709 | 59 | 223 | 0.9 | 1.7 | 0.00 | 0.00 | 0.00 | 85 | 1014.1 |
| 20260509090207 | 59 | 223 | 0.9 | 2.6 | 0.00 | 0.00 | 0.00 | 85 | 1014.1 |
| 20260509085705 | 59 | 223 | 0.9 | 2.6 | 0.00 | 0.00 | 0.00 | 85 | 1014.1 |
| 20260509085204 | 59 | 223 | 0.9 | 1.7 | 0.00 | 0.00 | 0.00 | 85 | 1014.2 |
| 20260509084701 | 60 | 223 | 0.9 | 1.7 | 0.00 | 0.00 | 0.00 | 85 | 1014.2 |
| 20260509084201 | 60 | 223 | 0.9 | 1.7 | 0.00 | 0.00 | 0.00 | 85 | 1014.2 |
| 20260509083701 | 60 | 223 | 0.9 | 1.7 | 0.00 | 0.00 | 0.00 | 85 | 1014.3 |
| 20260509083158 | 60 | 223 | 0.0 | 1.7 | 0.00 | 0.00 | 0.00 | 85 | 1014.3 |
| 20260509082657 | 60 | 223 | 0.9 | 1.7 | 0.00 | 0.00 | 0.00 | 85 | 1014.3 |
| 20260509082158 | 60 | 223 | 0.9 | 1.7 | 0.00 | 0.00 | 0.00 | 85 | 1014.3 |
| 20260509081657 | 60 | 223 | 0.0 | 1.7 | 0.00 | 0.00 | 0.00 | 85 | 1014.3 |
| 20260509081156 | 60 | 223 | 0.0 | 1.7 | 0.00 | 0.00 | 0.00 | 84 | 1014.4 |
| 20260509080655 | 60 | 223 | 0.9 | 1.7 | 0.00 | 0.00 | 0.00 | 85 | 1014.4 |
| 20260509080155 | 60 | 223 | 0.0 | 1.7 | 0.00 | 0.00 | 0.00 | 85 | 1014.5 |
| 20260509075653 | 60 | 223 | 0.0 | 1.7 | 0.00 | 0.00 | 0.00 | 85 | 1014.5 |
| 20260509075152 | 60 | 223 | 0.9 | 1.7 | 0.00 | 0.00 | 0.00 | 84 | 1014.5 |
| 20260509074922 | 60 | 223 | 0.9 | 1.7 | 0.00 | 0.00 | 0.00 | 84 | 1014.5 |
| 20260509074148 | 60 | 223 | 0.0 | 1.7 | 0.00 | 0.00 | 0.00 | 84 | 1014.6 |
| 20260509073648 | 60 | 223 | 0.9 | 2.6 | 0.00 | 0.00 | 0.00 | 84 | 1014.5 |
| 20260509073143 | 60 | 223 | 0.9 | 2.6 | 0.00 | 0.00 | 0.00 | 84 | 1014.5 |
| 20260509072641 | 61 | 223 | 0.0 | 2.6 | 0.00 | 0.00 | 0.00 | 84 | 1014.5 |
| 20260509072140 | 61 | 223 | 0.9 | 2.6 | 0.00 | 0.00 | 0.00 | 84 | 1014.5 |
| 20260509071640 | 61 | 223 | 0.9 | 1.7 | 0.00 | 0.00 | 0.00 | 84 | 1014.5 |
| 20260509071141 | 61 | 223 | 0.9 | 2.6 | 0.00 | 0.00 | 0.00 | 84 | 1014.5 |
| 20260509070641 | 61 | 223 | 0.9 | 3.5 | 0.00 | 0.00 | 0.00 | 83 | 1014.6 |
| 20260509070412 | 61 | 223 | 0.0 | 3.5 | 0.00 | 0.00 | 0.00 | 84 | 1014.6 |
| 20260509065640 | 61 | 223 | 0.9 | 2.6 | 0.00 | 0.00 | 0.00 | 83 | 1014.6 |
| 20260509065140 | 61 | 223 | 0.9 | 2.6 | 0.00 | 0.00 | 0.00 | 83 | 1014.6 |
| 20260509064636 | 61 | 223 | 0.9 | 2.6 | 0.00 | 0.00 | 0.00 | 83 | 1014.6 |
| 20260509064409 | 61 | 223 | 0.9 | 2.6 | 0.00 | 0.00 | 0.00 | 83 | 1014.7 |
| 20260509063637 | 62 | 223 | 0.9 | 2.6 | 0.00 | 0.00 | 0.00 | 83 | 1014.7 |
| 20260509063133 | 62 | 223 | 0.0 | 2.6 | 0.00 | 0.00 | 0.00 | 82 | 1014.7 |
| 20260509062633 | 62 | 223 | 0.9 | 3.5 | 0.00 | 0.00 | 0.00 | 82 | 1014.7 |
| 20260509062133 | 62 | 223 | 1.7 | 4.3 | 0.00 | 0.00 | 0.00 | 82 | 1014.7 |
| 20260509061632 | 62 | 223 | 1.7 | 4.3 | 0.00 | 0.00 | 0.00 | 82 | 1014.7 |
| 20260509061129 | 62 | 223 | 1.7 | 4.3 | 0.00 | 0.00 | 0.00 | 82 | 1014.7 |
| 20260509060629 | 62 | 223 | 1.7 | 3.5 | 0.00 | 0.00 | 0.00 | 82 | 1014.8 |
| 20260509060124 | 62 | 223 | 1.7 | 4.3 | 0.00 | 0.00 | 0.00 | 81 | 1014.7 |
| 20260509055620 | 62 | 223 | 1.7 | 4.3 | 0.00 | 0.00 | 0.00 | 81 | 1014.7 |
| 20260509055120 | 62 | 223 | 1.7 | 4.3 | 0.00 | 0.00 | 0.00 | 81 | 1014.7 |
| 20260509054619 | 63 | 223 | 2.6 | 5.2 | 0.00 | 0.00 | 0.00 | 81 | 1014.7 |
| 20260509054117 | 63 | 223 | 2.6 | 5.2 | 0.00 | 0.00 | 0.00 | 80 | 1014.7 |
| 20260509053617 | 63 | 223 | 2.6 | 4.3 | 0.00 | 0.00 | 0.00 | 80 | 1014.7 |
| 20260509053110 | 63 | 223 | 2.6 | 4.3 | 0.00 | 0.00 | 0.00 | 80 | 1014.7 |
| 20260509052608 | 63 | 223 | 2.6 | 5.2 | 0.00 | 0.00 | 0.00 | 79 | 1014.8 |
| 20260509052107 | 64 | 223 | 1.7 | 5.2 | 0.00 | 0.00 | 0.00 | 79 | 1014.8 |
| 20260509051838 | 64 | 223 | 1.7 | 3.5 | 0.00 | 0.00 | 0.00 | 79 | 1014.8 |
| 20260509051352 | 64 | 223 | 2.6 | 6.1 | 0.00 | 0.00 | 0.00 | 79 | 1014.8 |
| 20260509050606 | 64 | 223 | 2.6 | 6.1 | 0.00 | 0.00 | 0.00 | 79 | 1014.7 |
| 20260509050339 | 64 | 225 | 2.6 | 5.2 | 0.00 | 0.00 | 0.00 | 78 | 1014.6 |
| 20260509045606 | 64 | 224 | 3.5 | 7.0 | 0.00 | 0.00 | 0.00 | 78 | 1014.6 |
| 20260509045338 | 64 | 224 | 2.6 | 7.0 | 0.00 | 0.00 | 0.00 | 78 | 1014.7 |
| 20260509044606 | 65 | 225 | 2.6 | 6.1 | 0.00 | 0.00 | 0.00 | 77 | 1014.6 |
| 20260509044107 | 65 | 225 | 2.6 | 6.1 | 0.00 | 0.00 | 0.00 | 77 | 1014.4 |
| 20260509043608 | 65 | 225 | 2.6 | 5.2 | 0.00 | 0.00 | 0.00 | 76 | 1014.4 |
| 20260509043107 | 65 | 225 | 2.6 | 6.1 | 0.00 | 0.00 | 0.00 | 76 | 1014.4 |
| 20260509042604 | 65 | 225 | 3.5 | 6.1 | 0.00 | 0.00 | 0.00 | 76 | 1014.3 |
| 20260509042103 | 66 | 225 | 2.6 | 5.2 | 0.00 | 0.00 | 0.00 | 75 | 1014.2 |
| 20260509041601 | 66 | 225 | 2.6 | 6.1 | 0.00 | 0.00 | 0.00 | 74 | 1014.2 |
| 20260509041057 | 66 | 225 | 3.5 | 6.1 | 0.00 | 0.00 | 0.00 | 74 | 1014.1 |
| 20260509040554 | 66 | 225 | 3.5 | 6.1 | 0.00 | 0.00 | 0.00 | 74 | 1014.1 |
| 20260509040108 | 67 | 225 | 3.5 | 6.1 | 0.00 | 0.00 | 0.00 | 73 | 1014.0 |
| 20260509035552 | 67 | 225 | 3.5 | 6.1 | 0.00 | 0.00 | 0.00 | 73 | 1014.0 |
| 20260509035322 | 67 | 225 | 4.3 | 8.7 | 0.00 | 0.00 | 0.00 | 72 | 1013.9 |
| 20260509034545 | 67 | 226 | 4.3 | 8.7 | 0.00 | 0.00 | 0.00 | 71 | 1013.9 |
| 20260509034046 | 68 | 224 | 4.3 | 8.7 | 0.00 | 0.00 | 0.00 | 71 | 1013.9 |
| 20260509033545 | 68 | 223 | 3.5 | 7.8 | 0.00 | 0.00 | 0.00 | 70 | 1013.8 |
| 20260509033044 | 69 | 224 | 4.3 | 7.8 | 0.00 | 0.00 | 0.00 | 70 | 1013.8 |
| 20260509032546 | 69 | 226 | 5.2 | 8.7 | 0.00 | 0.00 | 0.00 | 69 | 1013.7 |
| 20260509031544 | 69 | 226 | 4.3 | 7.0 | 0.00 | 0.00 | 0.00 | 68 | 1013.6 |
| 20260509031043 | 69 | 226 | 5.2 | 7.8 | 0.00 | 0.00 | 0.00 | 68 | 1013.5 |
| 20260509030813 | 69 | 227 | 4.3 | 8.7 | 0.00 | 0.00 | 0.00 | 67 | 1013.5 |
| 20260509030053 | 70 | 226 | 5.2 | 8.7 | 0.00 | 0.00 | 0.00 | 67 | 1013.3 |
| 20260509025541 | 70 | 223 | 5.2 | 8.7 | 0.00 | 0.00 | 0.00 | 66 | 1013.3 |
| 20260509025034 | 71 | 215 | 4.3 | 8.7 | 0.00 | 0.00 | 0.00 | 65 | 1013.2 |
| 20260509024035 | 71 | 224 | 4.3 | 8.7 | 0.00 | 0.00 | 0.00 | 64 | 1013.1 |
| 20260509023806 | 72 | 224 | 5.2 | 9.6 | 0.00 | 0.00 | 0.00 | 63 | 1013.0 |
| 20260509023035 | 72 | 221 | 5.2 | 9.6 | 0.00 | 0.00 | 0.00 | 62 | 1013.0 |
| 20260509022535 | 73 | 226 | 6.1 | 10.4 | 0.00 | 0.00 | 0.00 | 62 | 1013.0 |
| 20260509022034 | 73 | 232 | 6.1 | 10.4 | 0.00 | 0.00 | 0.00 | 61 | 1012.9 |
| 20260509021806 | 74 | 225 | 6.1 | 10.4 | 0.00 | 0.00 | 0.00 | 60 | 1012.8 |
| 20260509021034 | 74 | 229 | 6.1 | 11.3 | 0.00 | 0.00 | 0.00 | 59 | 1012.8 |
| 20260509020805 | 75 | 213 | 6.1 | 11.3 | 0.00 | 0.00 | 0.00 | 58 | 1012.8 |
| 20260509020034 | 76 | 222 | 5.2 | 9.6 | 0.00 | 0.00 | 0.00 | 56 | 1012.7 |
| 20260509015535 | 76 | 223 | 6.1 | 10.4 | 0.00 | 0.00 | 0.00 | 56 | 1012.7 |
| 20260509015035 | 76 | 240 | 6.1 | 10.4 | 0.00 | 0.00 | 0.00 | 55 | 1012.6 |
| 20260509014807 | 77 | 229 | 5.2 | 9.6 | 0.00 | 0.00 | 0.00 | 54 | 1012.6 |
| 20260509014032 | 78 | 221 | 5.2 | 10.4 | 0.00 | 0.00 | 0.00 | 53 | 1012.6 |
| 20260509013531 | 78 | 238 | 6.1 | 10.4 | 0.00 | 0.00 | 0.00 | 52 | 1012.5 |
| 20260509013031 | 79 | 219 | 7.0 | 11.3 | 0.00 | 0.00 | 0.00 | 52 | 1012.5 |
| 20260509012532 | 79 | 218 | 7.0 | 11.3 | 0.00 | 0.00 | 0.00 | 51 | 1012.5 |
| 20260509012026 | 79 | 225 | 7.0 | 11.3 | 0.00 | 0.00 | 0.00 | 51 | 1012.6 |
| 20260509011527 | 79 | 226 | 7.8 | 13.0 | 0.00 | 0.00 | 0.00 | 51 | 1012.5 |
| 20260509011025 | 80 | 223 | 7.0 | 13.0 | 0.00 | 0.00 | 0.00 | 49 | 1012.5 |
| 20260509010526 | 81 | 223 | 5.2 | 9.6 | 0.00 | 0.00 | 0.00 | 48 | 1012.3 |
| 20260509010025 | 82 | 220 | 5.2 | 9.6 | 0.00 | 0.00 | 0.00 | 47 | 1012.3 |
| 20260509005524 | 82 | 226 | 5.2 | 9.6 | 0.00 | 0.00 | 0.00 | 47 | 1012.5 |
| 20260509005024 | 81 | 227 | 5.2 | 8.7 | 0.00 | 0.00 | 0.00 | 48 | 1012.5 |
| 20260509004757 | 81 | 220 | 6.1 | 10.4 | 0.00 | 0.00 | 0.00 | 48 | 1012.6 |
| 20260509003522 | 83 | 203 | 5.2 | 8.7 | 0.00 | 0.00 | 0.00 | 46 | 1012.6 |
| 20260509003021 | 83 | 232 | 5.2 | 9.6 | 0.00 | 0.00 | 0.00 | 45 | 1012.6 |
| 20260509002753 | 83 | 227 | 5.2 | 9.6 | 0.00 | 0.00 | 0.00 | 46 | 1012.5 |
| 20260509001514 | 83 | 250 | 6.1 | 12.2 | 0.00 | 0.00 | 0.00 | 46 | 1012.6 |
| 20260509001013 | 83 | 265 | 6.1 | 13.0 | 0.00 | 0.00 | 0.00 | 46 | 1012.6 |
| 20260509000512 | 83 | 264 | 6.1 | 13.0 | 0.00 | 0.00 | 0.00 | 45 | 1012.6 |
| 20260509000012 | 83 | 241 | 7.0 | 14.8 | 0.00 | 0.00 | 0.00 | 45 | 1012.6 |
| 20260508235513 | 83 | 250 | 6.1 | 14.8 | 0.00 | 0.00 | 0.00 | 46 | 1012.6 |
| 20260508235010 | 82 | 271 | 7.0 | 12.2 | 0.00 | 0.00 | 0.00 | 47 | 1012.7 |
| 20260508234511 | 82 | 223 | 7.0 | 12.2 | 0.00 | 0.00 | 0.00 | 46 | 1012.7 |
| 20260508234005 | 83 | 212 | 6.1 | 11.3 | 0.00 | 0.00 | 0.00 | 46 | 1012.7 |
| 20260508233504 | 83 | 247 | 7.0 | 11.3 | 0.00 | 0.00 | 0.00 | 45 | 1012.7 |
| 20260508233004 | 83 | 223 | 6.1 | 11.3 | 0.00 | 0.00 | 0.00 | 45 | 1012.7 |
| 20260508232504 | 84 | 223 | 5.2 | 11.3 | 0.00 | 0.00 | 0.00 | 45 | 1012.7 |
| 20260508232236 | 84 | 253 | 6.1 | 9.6 | 0.00 | 0.00 | 0.00 | 45 | 1012.8 |
| 20260508231504 | 84 | 256 | 5.2 | 9.6 | 0.00 | 0.00 | 0.00 | 44 | 1012.9 |
| 20260508231005 | 84 | 248 | 5.2 | 8.7 | 0.00 | 0.00 | 0.00 | 44 | 1012.9 |
| 20260508230503 | 84 | 252 | 5.2 | 10.4 | 0.00 | 0.00 | 0.00 | 45 | 1013.0 |
| 20260508230004 | 84 | 246 | 6.1 | 10.4 | 0.00 | 0.00 | 0.00 | 45 | 1013.1 |
| 20260508225501 | 83 | 243 | 6.1 | 11.3 | 0.00 | 0.00 | 0.00 | 46 | 1013.1 |
| 20260508225233 | 83 | 268 | 7.0 | 11.3 | 0.00 | 0.00 | 0.00 | 46 | 1013.1 |
| 20260508224458 | 83 | 221 | 7.0 | 11.3 | 0.00 | 0.00 | 0.00 | 46 | 1013.2 |
| 20260508223958 | 84 | 225 | 6.1 | 11.3 | 0.00 | 0.00 | 0.00 | 46 | 1013.2 |
| 20260508223458 | 85 | 213 | 6.1 | 10.4 | 0.00 | 0.00 | 0.00 | 45 | 1013.3 |
| 20260508223000 | 84 | 242 | 5.2 | 10.4 | 0.00 | 0.00 | 0.00 | 46 | 1013.3 |
| 20260508222459 | 84 | 229 | 5.2 | 10.4 | 0.00 | 0.00 | 0.00 | 46 | 1013.4 |
| 20260508221959 | 84 | 250 | 5.2 | 10.4 | 0.00 | 0.00 | 0.00 | 47 | 1013.4 |
| 20260508221500 | 83 | 247 | 6.1 | 10.4 | 0.00 | 0.00 | 0.00 | 46 | 1013.4 |
| 20260508221000 | 83 | 223 | 6.1 | 12.2 | 0.00 | 0.00 | 0.00 | 46 | 1013.5 |
| 20260508220731 | 84 | 221 | 6.1 | 12.2 | 0.00 | 0.00 | 0.00 | 45 | 1013.5 |
| 20260508215959 | 84 | 223 | 5.2 | 9.6 | 0.00 | 0.00 | 0.00 | 46 | 1013.5 |
| 20260508215459 | 84 | 206 | 5.2 | 11.3 | 0.00 | 0.00 | 0.00 | 45 | 1013.6 |
| 20260508214959 | 84 | 221 | 4.3 | 11.3 | 0.00 | 0.00 | 0.00 | 45 | 1013.6 |
| 20260508214459 | 84 | 226 | 5.2 | 10.4 | 0.00 | 0.00 | 0.00 | 45 | 1013.6 |
| 20260508213958 | 84 | 211 | 5.2 | 10.4 | 0.00 | 0.00 | 0.00 | 45 | 1013.6 |
| 20260508213456 | 84 | 225 | 4.3 | 8.7 | 0.00 | 0.00 | 0.00 | 46 | 1013.7 |
| 20260508212957 | 85 | 237 | 3.5 | 7.8 | 0.00 | 0.00 | 0.00 | 45 | 1013.7 |
| 20260508212457 | 85 | 227 | 4.3 | 8.7 | 0.00 | 0.00 | 0.00 | 45 | 1013.8 |
| 20260508211957 | 85 | 263 | 4.3 | 8.7 | 0.00 | 0.00 | 0.00 | 45 | 1013.8 |
| 20260508211455 | 85 | 265 | 3.5 | 8.7 | 0.00 | 0.00 | 0.00 | 45 | 1013.9 |
| 20260508211225 | 85 | 244 | 3.5 | 6.1 | 0.00 | 0.00 | 0.00 | 45 | 1013.9 |
| 20260508210450 | 85 | 238 | 3.5 | 7.0 | 0.00 | 0.00 | 0.00 | 45 | 1014.0 |
| 20260508205948 | 84 | 227 | 2.6 | 7.0 | 0.00 | 0.00 | 0.00 | 45 | 1014.0 |
| 20260508205450 | 83 | 223 | 1.7 | 6.1 | 0.00 | 0.00 | 0.00 | 46 | 1014.1 |
| 20260508204944 | 83 | 229 | 3.5 | 7.0 | 0.00 | 0.00 | 0.00 | 45 | 1014.3 |
| 20260508204441 | 83 | 246 | 4.3 | 7.8 | 0.00 | 0.00 | 0.00 | 48 | 1014.4 |
| 20260508203940 | 83 | 220 | 3.5 | 7.8 | 0.00 | 0.00 | 0.00 | 46 | 1014.4 |